Theta_e
354 347 345 335 321 320 313 317 327 321 320 327 327 324 322 326 323 310 339 344 350 351 355 356 361 361 359 359 358 358 361 363 362 363 364 363 363 363 363 363 363 363 364 361 361 359 359 357 357
347 344 339 333 315 310 314 325 323 322 325 328 329 329 326 323 335 336 338 348 352 352 353 355 362 361 361 359 358 358 357 360 361 362 363 363 363 363 363 363 362 363 364 361 360 359 358 358 357
345 343 328 325 318 311 314 325 322 326 328 327 327 332 330 329 335 337 343 350 352 351 352 354 360 362 361 361 361 358 359 358 359 360 362 362 363 363 362 363 363 363 362 361 360 359 358 357 357
343 337 329 320 317 320 323 326 325 323 327 331 331 326 334 340 337 342 348 351 350 349 351 357 361 362 360 361 361 359 359 360 358 360 361 361 361 363 363 363 363 362 361 361 360 359 358 357 358
345 335 321 317 319 324 327 333 327 324 326 328 329 324 327 339 344 345 347 348 347 349 353 354 362 362 360 360 360 360 358 360 359 360 360 359 361 362 362 362 362 360 359 360 360 360 358 362 362
331 333 317 314 319 325 330 334 328 326 327 328 327 326 327 341 342 344 346 347 351 351 353 355 360 361 360 360 360 360 360 359 360 359 359 360 361 362 362 362 361 361 360 359 359 358 361 363 363
329 325 319 319 319 323 327 334 327 325 325 325 330 323 330 335 341 344 345 348 350 353 352 353 353 358 360 360 359 359 359 359 359 359 359 361 361 362 361 362 362 362 360 359 359 358 359 362 364
334 326 318 320 319 320 328 332 335 330 326 333 332 323 324 333 342 344 345 347 348 350 350 352 351 353 351 353 359 359 360 360 359 359 359 360 361 361 361 361 364 362 360 359 358 358 358 360 362
337 320 315 319 321 324 329 326 334 337 330 331 332 331 334 340 343 341 342 343 346 349 348 349 349 350 351 351 355 358 359 360 360 359 358 356 350 351 353 361 362 361 359 358 358 358 358 358 359
326 317 317 325 326 328 329 329 330 329 328 327 329 333 338 340 339 337 337 338 342 344 346 348 347 348 350 355 351 350 352 351 350 350 349 347 347 349 354 359 361 360 359 357 358 357 356 354 349
326 319 324 326 330 332 329 328 331 327 326 326 325 329 336 336 336 335 336 339 341 344 348 348 346 349 349 349 348 348 347 347 347 347 346 346 346 349 350 349 349 349 353 344 346 346 349 350 348
318 325 327 329 333 332 328 331 326 329 331 334 331 334 335 334 334 335 336 338 339 342 346 347 347 348 347 349 347 347 347 348 345 346 345 344 343 344 345 346 346 345 342 339 336 336 338 345 347
321 327 328 334 332 331 331 328 326 328 336 335 336 336 334 334 335 337 339 340 341 342 345 345 347 347 347 348 347 346 347 348 345 345 346 344 342 342 343 345 345 343 338 337 337 334 340 336 338
326 327 328 331 331 329 328 327 331 330 338 333 334 333 334 335 335 336 337 339 340 342 343 345 345 347 347 345 346 346 346 346 346 346 346 343 340 340 342 342 343 342 340 343 343 341 339 336 336
315 321 326 328 330 327 329 322 324 332 335 329 330 332 334 336 336 335 339 339 341 343 344 343 343 347 346 345 346 345 345 347 345 347 346 342 340 340 343 342 342 343 344 344 344 344 341 335 334
305 316 316 325 330 328 327 314 326 332 332 329 327 330 333 335 335 337 340 341 343 344 343 343 346 345 344 343 346 346 346 346 345 348 349 346 345 345 343 342 340 341 345 343 344 342 338 335 333
298 298 312 319 330 327 323 316 326 332 331 329 326 325 330 333 335 338 340 342 344 344 342 344 344 344 344 347 346 346 342 342 343 347 348 349 345 346 345 343 342 343 341 343 340 338 337 338 337
294 296 307 317 325 327 320 318 325 329 330 330 329 324 329 331 334 338 340 343 344 344 343 344 343 342 343 347 344 343 335 338 340 345 347 349 348 350 347 345 344 347 342 343 341 340 341 340 337
299 299 315 320 323 319 317 319 322 327 329 330 331 321 328 330 336 338 340 344 344 343 339 342 342 340 344 344 341 339 335 338 339 341 347 349 348 351 348 347 345 348 343 341 343 341 338 336 337
299 307 313 319 324 321 316 318 323 326 327 329 330 321 327 329 333 337 340 342 341 340 339 341 342 339 342 343 343 343 342 342 342 343 347 348 349 348 349 346 345 346 343 340 343 342 336 339 337
294 297 312 313 318 322 319 315 319 324 328 330 333 323 329 329 331 335 338 340 340 338 340 341 342 339 340 345 344 342 343 343 342 342 344 348 350 349 349 348 346 347 344 342 342 344 341 336 339
290 300 314 315 310 304 317 301 312 321 324 328 328 323 327 329 331 334 337 338 337 339 342 342 342 339 341 345 342 341 339 338 341 341 343 347 351 350 349 347 347 346 345 343 342 345 340 337 336
298 303 311 315 309 308 312 303 304 320 319 323 327 324 326 330 331 332 336 337 337 342 342 344 342 340 343 343 342 339 336 337 341 343 342 345 348 349 351 349 348 345 344 341 344 345 341 343 340
306 311 310 307 304 297 308 305 305 312 318 322 327 327 326 330 331 333 337 338 337 344 342 344 342 340 345 346 342 339 337 339 343 343 342 344 346 348 350 349 347 345 343 342 342 345 343 345 345
299 300 293 294 295 295 303 304 304 317 322 325 326 327 328 329 331 332 334 336 337 342 342 342 341 338 341 345 346 342 340 340 342 342 342 342 343 344 347 348 346 346 345 344 343 345 345 343 343
295 297 290 288 291 294 304 298 305 319 324 327 331 331 333 333 332 332 334 336 337 341 343 342 340 337 340 343 345 345 342 341 342 343 341 341 344 345 348 349 348 347 347 347 347 345 346 346 344
295 293 297 292 291 296 300 304 313 320 319 325 327 330 332 332 334 334 335 336 340 341 340 345 343 339 341 343 344 345 343 341 340 343 342 340 343 346 347 350 350 349 347 348 347 345 344 345 343
297 300 294 291 287 287 297 298 302 314 318 319 324 325 328 332 334 335 338 338 339 341 341 341 344 341 342 344 345 346 347 344 342 342 341 343 343 346 348 348 349 347 348 348 346 344 343 344 344
299 297 294 293 291 291 292 298 318 318 324 324 325 326 328 331 332 334 337 338 338 340 340 339 337 343 342 344 345 346 347 347 345 343 342 342 345 345 346 346 343 346 348 348 347 344 344 343 342
298 297 295 291 291 294 296 301 322 323 325 325 325 327 328 327 328 331 334 338 338 337 338 338 339 340 341 343 343 343 344 344 345 345 346 350 345 346 347 346 344 344 347 348 346 345 346 344 344
Wind_Speed
5 4 1 1 1 1 3 5 3 6 11 7 17 4 5 6 3 3 6 9 14 11 8 9 12 14 13 13 12 11 11 12 12 11 13 12 12 11 11 12 14 14 15 16 16 17 17 17 16
5 4 1 1 3 2 1 4 3 2 6 21 6 9 7 3 5 12 7 12 12 11 6 6 11 12 14 13 13 12 10 10 10 10 12 12 11 12 12 13 13 14 15 15 14 15 15 14 13
6 2 2 1 2 4 3 3 9 16 17 12 7 7 5 3 13 9 10 15 12 8 7 8 12 12 13 11 14 12 12 12 10 9 11 12 12 13 12 12 13 14 15 15 14 14 12 9 9
3 2 2 2 6 4 5 5 8 7 9 8 16 11 6 10 6 7 14 15 11 7 6 11 12 12 12 11 11 13 10 13 12 9 11 11 12 12 12 12 12 14 14 14 14 11 9 9 12
2 1 2 3 5 3 3 7 4 4 4 10 7 7 8 4 17 16 14 12 12 6 5 8 12 13 11 9 11 10 10 11 11 11 11 10 12 12 12 10 10 13 14 13 13 11 11 11 12
1 0 2 3 5 1 1 8 3 10 12 14 14 11 5 14 17 14 12 11 10 9 6 5 11 11 11 9 10 10 10 10 12 10 11 12 12 11 11 10 10 12 13 13 11 11 11 12 11
3 1 2 3 6 3 4 7 4 7 10 10 9 8 7 12 13 13 11 10 8 7 6 5 5 8 11 10 8 9 10 9 11 12 11 12 10 11 10 9 9 11 12 12 10 10 9 7 9
4 1 3 2 6 4 3 3 2 7 12 16 10 5 12 13 14 11 9 7 6 5 5 5 4 5 5 5 10 9 9 10 11 11 12 11 10 10 8 7 8 10 11 10 8 8 7 7 9
3 1 4 7 6 7 5 4 4 2 10 4 5 8 13 18 16 12 10 5 6 5 3 4 5 5 4 3 5 8 9 10 11 11 10 7 3 4 5 7 10 9 9 8 7 8 7 6 7
3 2 2 4 3 9 13 8 8 5 7 11 17 17 19 18 17 15 12 9 6 5 4 3 5 5 4 2 4 2 3 4 3 4 5 3 4 2 2 6 8 9 8 7 5 5 5 4 3
4 3 4 4 5 6 12 9 5 12 3 13 24 23 20 17 14 14 12 12 10 6 4 5 5 5 4 4 2 1 1 2 2 5 4 3 2 1 2 2 3 4 6 4 5 4 1 1 1
4 2 6 3 8 16 15 10 10 8 3 9 20 23 20 19 16 13 12 12 10 8 6 5 5 5 3 3 3 2 2 2 2 3 4 3 1 0 2 2 2 3 3 3 3 2 4 4 5
3 6 8 6 3 12 15 8 7 11 2 11 22 22 20 18 15 11 8 9 10 9 6 6 6 5 4 4 3 2 3 2 2 4 4 3 3 2 1 1 2 2 3 3 2 3 3 2 2
7 8 8 7 8 14 13 6 9 8 1 13 25 21 19 19 16 11 10 10 11 8 8 6 6 5 6 4 5 3 2 2 2 1 4 5 3 4 3 2 1 1 1 2 1 2 3 4 2
7 8 10 8 11 6 13 4 3 6 2 13 20 20 18 17 15 17 15 13 13 10 9 9 7 6 6 6 4 2 3 3 3 3 5 5 5 5 4 3 2 2 2 2 2 2 3 3 3
2 6 6 7 14 9 0 4 8 5 5 8 20 18 18 17 18 14 14 13 10 9 11 8 8 6 6 5 4 3 4 3 3 3 4 5 5 5 4 3 2 1 1 1 2 3 2 3 2
5 4 5 7 11 5 3 3 9 10 8 7 19 15 17 17 13 12 14 12 12 13 11 9 7 7 6 4 4 4 4 3 2 3 4 5 5 5 3 3 3 2 1 2 1 2 2 2 2
3 3 1 4 10 9 6 6 13 15 9 6 5 12 17 16 16 15 14 11 10 9 8 8 6 7 6 4 4 3 3 2 1 1 3 5 3 4 4 3 2 3 2 1 2 2 2 1 1
4 2 9 6 8 7 5 6 10 15 8 7 4 8 17 17 13 15 15 13 10 7 7 8 8 6 5 2 4 2 2 1 1 1 1 3 4 3 3 3 3 2 3 1 1 1 3 3 3
3 4 6 9 7 8 10 9 8 14 9 6 6 7 15 14 14 15 13 13 12 13 10 8 8 8 5 4 1 3 2 1 1 2 2 1 1 2 3 3 3 2 2 3 2 3 1 2 2
3 5 7 9 8 5 9 2 8 10 9 9 9 7 16 16 17 15 15 16 12 13 12 12 9 9 6 6 4 3 3 2 2 0 1 3 3 3 3 3 2 2 2 3 1 2 3 1 2
2 8 9 15 10 6 7 4 5 12 12 11 10 11 16 17 15 17 16 15 13 13 11 11 9 8 6 7 5 6 5 4 3 3 2 3 4 4 3 2 2 3 2 1 1 1 2 2 3
10 6 14 13 4 5 4 3 3 10 11 10 12 13 17 21 21 20 19 18 14 13 13 12 10 8 7 7 7 5 4 2 2 2 3 3 3 4 4 5 5 4 3 1 2 1 2 2 1
2 9 11 6 4 2 8 6 5 13 18 24 19 14 18 20 21 19 17 17 14 11 11 11 10 8 8 7 7 8 8 6 4 3 3 2 2 3 5 5 4 4 3 4 2 0 3 2 2
4 8 3 4 1 7 5 2 4 12 18 26 24 12 14 15 15 14 12 14 14 14 11 10 9 7 7 8 7 7 7 7 7 5 4 4 2 2 5 4 4 3 4 4 4 3 2 2 1
8 10 8 7 6 3 5 5 3 8 11 6 14 10 10 12 14 14 16 13 12 13 12 12 10 7 7 7 7 6 6 4 4 5 4 4 4 3 4 5 4 5 4 4 5 3 3 2 1
4 4 7 8 2 5 3 1 4 9 10 10 14 13 9 10 13 12 7 7 4 7 7 4 4 1 4 6 5 6 6 6 5 5 4 3 3 3 5 5 6 6 5 5 5 3 3 3 1
7 7 4 3 5 3 3 1 2 3 6 6 11 11 10 9 10 13 10 13 7 8 8 10 5 4 4 3 3 3 5 6 4 4 5 5 4 4 5 6 5 5 5 5 4 3 3 4 2
3 2 7 6 4 6 4 4 4 3 8 11 10 11 11 9 8 9 11 7 5 9 10 9 9 8 1 3 3 2 3 3 3 4 5 6 4 5 7 6 6 6 5 5 4 4 3 4 4
1 5 5 7 3 4 4 3 4 9 9 11 11 11 10 8 6 7 5 4 3 5 6 6 6 8 5 5 3 1 2 1 3 4 5 5 6 5 6 5 6 6 5 5 5 5 4 5 5
Wind_Direction
210 145 193 302 76 299 197 255 355 119 134 165 149 146 178 93 158 192 144 141 133 139 147 144 141 130 128 126 125 123 119 123 124 120 121 118 116 111 108 106 106 104 103 101 102 104 104 106 103
137 155 357 94 101 338 174 309 256 173 126 126 127 87 41 72 75 119 121 139 134 135 133 138 139 145 134 136 134 131 132 125 123 117 122 120 119 116 114 112 112 108 106 107 105 101 100 99 107
170 242 66 261 115 207 311 159 106 112 123 121 113 60 65 70 116 124 136 132 127 120 123 142 146 144 133 145 135 136 144 137 136 132 124 128 120 124 115 114 116 111 110 110 106 101 98 103 121
186 26 358 336 244 173 211 122 132 114 80 63 108 89 92 111 119 129 136 127 117 118 128 144 150 135 134 136 136 133 136 141 140 134 132 128 126 128 117 110 116 115 114 116 112 108 102 102 104
343 77 195 214 245 161 235 295 249 94 75 130 128 92 90 54 112 128 133 127 130 135 142 142 149 140 139 134 129 134 133 132 143 141 137 134 131 124 123 117 120 116 119 118 115 103 97 113 119
299 326 316 222 200 96 14 295 122 96 101 110 103 109 69 128 128 138 133 133 140 139 130 148 143 147 139 136 133 139 129 143 135 135 139 132 130 129 132 134 130 121 119 114 113 113 101 97 121
251 210 280 242 184 113 120 295 74 126 102 87 127 88 122 137 145 134 140 135 136 135 127 127 141 151 144 148 135 138 133 138 125 130 129 127 139 138 132 137 131 124 115 118 125 123 107 87 109
125 200 276 180 167 106 39 358 339 41 69 98 128 132 154 155 140 122 119 119 112 117 115 139 134 115 118 127 145 135 141 133 134 130 131 134 145 137 131 135 125 122 114 123 131 130 113 87 83
123 94 4 340 113 98 167 174 17 334 124 117 145 119 140 134 126 122 117 108 104 129 142 152 135 123 127 132 153 143 147 144 138 135 131 113 63 78 80 118 118 121 118 123 119 121 111 96 90
104 69 179 7 301 153 176 141 98 120 135 96 101 107 130 136 143 142 149 151 151 162 176 162 140 136 149 144 95 124 154 96 92 88 97 84 67 100 105 114 122 121 122 111 96 112 122 101 73
155 183 167 323 260 200 143 130 113 142 109 145 136 141 145 148 155 154 165 159 170 164 183 172 150 148 161 119 125 91 70 85 103 108 110 100 90 35 69 46 43 56 66 42 43 51 32 237 137
139 259 111 303 8 148 155 131 140 181 143 162 148 145 152 159 163 161 172 168 160 161 187 174 155 159 170 152 162 162 135 126 150 147 153 119 96 28 57 64 48 68 66 50 32 3 316 274 216
214 147 172 141 127 140 137 148 154 223 265 153 141 146 164 164 163 164 170 161 155 164 173 181 156 165 176 170 152 177 204 176 178 155 160 146 164 152 79 26 354 21 29 16 4 312 320 24 105
195 166 164 158 171 141 118 135 168 207 120 166 147 158 170 166 164 156 160 170 163 172 166 157 172 172 173 169 176 189 220 177 178 210 175 154 147 169 190 223 287 358 119 327 304 283 20 16 19
217 161 165 170 167 122 131 72 171 129 326 162 149 164 169 167 163 171 166 174 169 171 155 164 173 175 179 185 175 177 191 178 179 184 156 155 179 191 198 231 256 293 316 308 325 48 52 58 17
211 130 154 174 174 188 153 199 222 196 178 188 154 165 168 175 174 164 168 169 167 158 163 154 181 184 175 184 195 193 175 163 169 171 155 172 193 189 184 175 125 291 329 315 23 357 48 117 130
17 162 189 165 197 137 219 137 193 206 198 204 170 161 172 175 167 162 170 168 167 168 158 158 162 177 176 184 127 117 111 118 183 152 151 165 171 174 136 174 165 157 290 24 330 22 53 349 296
68 41 131 149 170 98 328 306 176 199 184 207 200 144 168 168 174 167 166 165 158 166 152 146 153 159 157 114 88 69 70 67 42 135 143 146 179 192 140 126 151 120 49 353 324 22 18 352 307
103 1 79 65 82 86 257 285 188 187 203 207 233 142 167 169 169 165 169 163 151 154 150 153 145 164 141 127 130 131 166 176 171 260 231 149 180 190 136 138 139 106 97 93 324 44 37 359 10
124 100 88 79 127 73 265 252 172 199 225 228 212 152 161 159 161 166 168 167 171 164 171 163 164 166 176 127 130 142 150 177 172 165 189 254 219 198 144 149 145 130 136 103 7 27 52 358 45
138 159 175 141 146 142 169 309 199 223 234 235 249 168 165 161 162 167 172 179 170 170 178 182 175 173 167 140 118 78 75 81 82 232 204 216 183 206 160 144 151 137 104 138 120 360 61 35 339
203 191 154 151 164 176 164 218 222 181 212 237 225 177 167 168 163 170 179 179 181 182 178 180 169 165 155 166 145 164 169 163 204 176 183 194 196 200 188 167 195 149 118 126 164 128 79 77 16
223 154 179 159 94 99 175 117 229 162 199 226 226 188 177 178 170 176 181 181 182 175 177 181 168 160 156 163 161 153 151 175 206 173 182 193 187 197 210 179 157 146 135 201 224 104 104 84 39
141 83 58 65 99 327 188 187 194 179 184 198 223 193 180 183 181 178 179 173 176 173 175 174 177 173 163 162 164 170 172 175 174 181 187 202 190 205 218 192 169 170 167 179 194 240 166 123 107
127 93 51 48 33 221 163 154 217 201 195 201 198 173 174 181 170 162 172 180 171 174 174 173 182 181 177 168 169 177 179 183 189 184 178 168 181 205 228 194 182 182 198 189 171 174 186 180 144
186 152 151 156 187 236 97 224 294 267 214 136 173 127 117 122 147 157 195 191 177 181 175 180 179 186 173 188 184 170 174 191 202 189 180 184 186 202 196 207 204 211 201 186 172 172 178 180 206
194 146 185 105 15 99 198 26 19 40 76 119 126 132 121 124 122 113 103 348 114 121 125 157 160 278 177 198 191 180 169 196 206 201 188 183 185 213 228 210 205 207 203 197 169 186 184 175 228
152 161 76 13 139 147 330 76 248 49 108 95 99 121 119 116 122 114 127 174 130 114 104 81 105 195 192 200 227 208 198 193 194 179 216 222 230 215 218 208 213 210 207 202 190 199 213 195 213
45 65 60 110 105 144 141 282 336 159 123 120 110 115 128 117 118 127 130 132 138 128 123 101 80 48 14 230 207 195 255 241 213 211 211 219 211 204 223 207 206 211 213 210 199 238 241 236 241
56 148 126 120 200 78 116 260 40 87 93 108 119 124 110 108 106 106 109 124 136 93 66 97 90 90 45 30 352 8 48 327 258 258 245 231 243 207 216 198 204 207 210 214 200 224 232 235 242